カタログに戻る

LEMUR 2 KRISH

運用中科学SSO
NORAD 64561·PAYLOAD·🇺🇸 United States

打ち上げ Jun 23, 2025 から Vandenberg Space Force Base

Loading…

次のパス (今後24時間)

TLE

最新Source: Space-Track

元期: Sep 14, 2026, 01:35 UTC

1 64561U 25135AK  26257.06632154  .00004550  00000-0  40144-3 0  9997
2 64561  97.7819  11.4057 0001700 103.2125 256.9286 14.96898058 67217

AllMySatでLEMUR 2 KRISHをリアルタイム追跡

Download on the App Store